User: anonymous   Login
Location: Karcze
(52.0945°N, 22.4786°E)
Time: 05:21:35
(UTC+00:00)
Language:

Vanguard 3 - Orbit

View from above orbital plane
View from above orbital plane
View from above satellite
View from above satellite

Ground track
Ground track

The orbit data is extracted from the following two-line orbital elements,

1 00020U 59007A   21206.91576829  .00000107  00000-0  27952-4 0  9998
2 00020  33.3518 184.5503 1666052 247.1839  94.4663 11.55808010277291
Epoch (UTC): 25 July 2021 21:58:42
Eccentricity: 0.1666052
inclination: 33.3518°
perigee height: 508 km
apogee height: 3261 km
right ascension of ascending node: 184.5503°
argument of perigee: 247.1839°
revolutions per day: 11.55808010
mean anomaly at epoch: 94.4663°
orbit number at epoch: 27729

The dashed part of the orbit path shows where the satellite is in the earth's shadow,  

DLR